Location: La Bilong�re
(48.1297°N, 1.4584°W)
Time: 23:41:31
(UTC+00:00)

Resurs 01 Rocket - Pass Details

Date: 03 March 2021
Orbit: 635 x 643 km, 98.0° (Epoch: 14 April)

Event Time Altitude Azimuth Distance (km) Brightness Sun altitude
Exits shadow 19:12:42 15° 58° (ENE) 1,702 3.4 -14.0°
Drops below altitude 10° 19:15:11 10° 23° (NNE) 2,034 4.0 -14.4°
Sets 19:18:11 0° 2° (N) 2,950 5.1 -14.9°
